Regional Weather Roundup
Issued by NWS

Home | Current Version | Previous Version | Graphics & Text | Print | Product List | Glossary On
Versions: 1 2 3 4 5 6 7 8 9 10 11 12 13 14 15 16 17 18 19 20 21 22 23 24 25 26 27 28 29 30 31 32 33 34 35 36 37 38 39 40 41 42 43 44 45 46 47 48 49 50
852
ASUS45 KSLC 271610
RWRUT

UTAH REGIONAL WEATHER ROUNDUP
NATIONAL WEATHER SERVICE SALT LAKE CITY UT
1000 AM MDT TUE SEP 27 2016

UTZ001>011-023>025-271700-

NORTHERN UTAH

CITY           SKY/WX    TMP DP  RH WIND       PRES   REMARKS
BRIGHAM CITY     N/A     56  49  78 CALM      30.25S
DUGWAY         SUNNY     58  50  72 VRB2      30.26R
HILL AFB       SUNNY     58  43  57 E14       30.25S
LOGAN          SUNNY     53  49  86 CALM      30.27S FOG
OGDEN          SUNNY     61  44  53 NE9       30.24S
PROVO AIRPORT  SUNNY     59  45  58 CALM      30.27S
SALT LAKE CITY MOSUNNY   62  48  60 SE7       30.23S
VERNAL         SUNNY     56  45  66 CALM      30.32S
WENDOVER       SUNNY     59  45  58 E3        30.25R
HEBER CITY     SUNNY     50  43  76 CALM      30.31S
WEST JORDAN    SUNNY     64  45  48 SE6       30.25S

$$

UTZ012>022-026-027-271700-

SOUTHERN/CENTRAL UTAH

CITY           SKY/WX    TMP DP  RH WIND       PRES   REMARKS
BLANDING       SUNNY     63  33  32 S6        30.41R
BRYCE CANYON   SUNNY     55  34  45 CALM      30.40S
CEDAR CITY     SUNNY     58  36  43 CALM      30.27S
DELTA          SUNNY     59  45  58 NE3       30.26R
MILFORD        SUNNY     57  40  52 S6        30.25F
MOAB/CYNLANDS  SUNNY     65  38  36 E5        30.24F
PRICE          SUNNY     60  42  51 CALM      30.31S
ST GEORGE      SUNNY     66  37  34 CALM      30.17S

$$

REGIONAL REPORTS     COLORADO/ARIZONA

CITY           SKY/WX    TMP DP  RH WIND       PRES   REMARKS
CRAIG, CO      SUNNY     51  37  58 CALM      30.37S
GRAND JUNCTION SUNNY     62  38  40 SE9       30.29S
RIFLE          SUNNY     55  40  56 CALM      30.34F
MONTROSE       SUNNY     58  36  43 W5        30.35S
CORTEZ         SUNNY     60  39  45 CALM      30.34S
PAGE, AZ       SUNNY     66  38  35 NW5       30.24R
GRAND CANYON   MOSUNNY   58  33  39 E8        30.33R
KINGMAN        PTSUNNY   72  38  29 SE12      30.14R
FLAGSTAFF      LGT RAIN  48  43  82 CALM      30.34R

$$

REGIONAL REPORTS    NEVADA/IDAHO/WYOMING

CITY           SKY/WX    TMP DP  RH WIND       PRES   REMARKS
LAS VEGAS, NV  MOSUNNY   77  31  18 CALM      30.06R
ELY            SUNNY     53  37  54 CALM      30.32S
ELKO           SUNNY     56  39  53 CALM      30.25S
POCATELLO, ID  SUNNY     54  46  74 NW3       30.26R
BURLEY         SUNNY     52  46  80 E5        30.20S
EVANSTON, WY   SUNNY     55  39  54 CALM      30.37S
ROCK SPRINGS   SUNNY     52  44  74 CALM      30.37R

$$




USA.gov is the U.S. government's official web portal to all federal, state and local government web resources and services.